Regional Weather Roundup
Issued by NWS

Home | Current Version | Previous Version | Graphics & Text | Print | Product List | Glossary On
Versions: 1 2 3 4 5 6 7 8 9 10 11 12 13 14 15 16 17 18 19 20 21 22 23 24 25 26 27 28 29 30 31 32 33 34 35 36 37 38 39 40 41 42 43 44 45 46 47 48 49 50
000
ASUS43 KMPX 240210
RWRMN
WEATHER ROUNDUP FOR MINNESOTA
NATIONAL WEATHER SERVICE TWIN CITIES/CHANHASSEN MN
900 PM CDT TUE AUG 23 2016


NOTE: "FAIR" INDICATES FEW OR NO CLOUDS BELOW 12,000 FEET WITH NO
SIGNIFICANT WEATHER AND/OR OBSTRUCTIONS TO VISIBILITY. N/A MEANS
CURRENT SKY AND/OR WEATHER CONDITIONS ARE NOT AVAILABLE.

MNZ060>063-068>070-240300-
   Twin Cities Metro

CITY           SKY/WX    TMP DP  RH WIND       PRES   REMARKS
TWIN CITIES    LGT RAIN  70  66  87 SE12      29.85R
ST PAUL        LGT RAIN  71  66  84 SE14      29.86R
CRYSTAL        LGT RAIN  72  63  73 SE10      29.83R
BLAINE         CLOUDY    75  64  69 SE14G22   29.86R
LAKEVILLE      LGT RAIN  66  66 100 S10G20    29.86F
EDEN PRAIRIE   LGT RAIN  70  67  90 S9        29.83S
LAKEVILLE      LGT RAIN  66  66 100 S10G20    29.86F
SOUTH ST PAUL  LGT RAIN  71  66  86 SE7       29.87R
LAKE ELMO      FAIR      70  66  88 S6        29.89R
$$
MNZ001>005-007-008-013>017-022>024-027-028-240300-
   Northwest Minnesota

CITY           SKY/WX    TMP DP  RH WIND       PRES   REMARKS
BEMIDJI        PTCLDY    76  70  82 S7        29.78S
HALLOCK        CLOUDY    75  70  83 NW7       29.67S
ROSEAU         MOCLDY    77  72  83 S10       29.69R
WARROAD        CLOUDY    79  72  78 S8        29.70R
THIEF RVR FALL MOCLDY    78  64  61 S14       29.73R
CROOKSTON      PTCLDY    79  64  61 S10       29.72R
FOSSTON        CLEAR     73  64  73 S9        29.77R
DETROIT LAKES  CLEAR     73  64  73 S9        29.81R
MOORHEAD       CLOUDY    77  64  65 S9        29.76S
PARK RAPIDS    PTCLDY    76  69  79 S8        29.81R
MAHNOMEN       FAIR      74  64  70 S14       29.78R
$$
MNZ006-009>011-018-025>026-240300-
   North Central Minnesota

CITY           SKY/WX    TMP DP  RH WIND       PRES   REMARKS
BAUDETTE       PTCLDY    77  66  68 S9        29.73R
FLAG ISLAND    CLOUDY    75  70  83 CALM      29.68S
INTL FALLS     CLEAR     76  67  73 VRB3      29.77R
WASKISH        CLEAR     77  70  78 S5        29.76R
BIG FORK       CLOUDY    75  68  78 S8        29.81R
LONGVILLE      MOCLDY    73  70  88 S5        29.82S
GRAND RAPIDS   CLOUDY    74  69  85 S10       29.85S
CRANE LAKE     CLEAR     73  66  78 S5        29.81S
ORR            CLEAR     73  64  73 S6        29.80R
COOK           CLOUDY    75  66  73 S7        29.83S
WALKER         FAIR      75  69  82 S5        29.80S
$$
MNZ012-019>021-037-240300-
   Northeast Minnesota

CITY           SKY/WX    TMP DP  RH WIND       PRES   REMARKS
DULUTH         CLOUDY    74  67  78 S14       29.89R
ELY            CLEAR     73  64  73 S7        29.85S
HIBBING        CLOUDY    73  68  84 S6        29.85R
EVELETH        CLOUDY    74  67  78 S9        29.87S
DULUTH HARBOR  PTCLDY    77  70  78 S7        29.87R
TWO HARBORS    CLOUDY    75  70  83 S6        29.87R
SILVER BAY     PTCLDY    73  66  78 CALM      29.88R
GRAND MARAIS     N/A     68  65  90 CALM      29.87F
G MARAIS ARPRT CLEAR     66  61  82 S7        29.93F
$$
MNZ029>031-032-039>041-046>048-054>057-064-240300-
   West Central Minnesota

CITY           SKY/WX    TMP DP  RH WIND       PRES   REMARKS
FERGUS FALLS   CLOUDY    72  66  83 S7        29.80R
WHEATON        MOCLDY    73  70  88 SE9       29.78R
MORRIS         CLOUDY    70  63  78 SE6       29.79R
ALEXANDRIA     PTCLDY    73  67  81 S8        29.83R
ELBOW LAKE     FAIR      71  67  87 S10       29.80R
WADENA         CLOUDY    72  66  83 S6        29.81R
GLENWOOD       CLOUDY    72  66  83 S7        29.83S
APPLETON       CLOUDY    72  66  83 S7        29.78S
BENSON         CLOUDY    70  63  78 S7        29.80S
ORTONVILLE     MOCLDY    72  64  78 S7        29.78S
MADISON        CLOUDY    68  64  88 S10       29.79S
WILLMAR        FAIR      72  66  83 CALM      29.82S
$$
MNZ033>034-036-042>043-049>051-058-059-240300-
   Central Minnesota

CITY           SKY/WX    TMP DP  RH WIND       PRES   REMARKS
ST CLOUD       CLOUDY    71  65  81 SE7       29.83S
SAUK CENTRE    FAIR      70  68  93 SE6       29.82S
PAYNESVILLE    CLOUDY   N/A N/A N/A MISG      29.82S
AITKIN         PTCLDY    77  64  65 S9        29.84R
PINE RIVER     CLOUDY    73  70  88 S5        29.85S
BRAINERD       CLOUDY    73  66  78 S7        29.84R
STAPLES        CLOUDY    73  66  78 S10       29.83R
LONG PRAIRIE   FAIR      70  68  94 SE3       29.83R
LITTLE FALLS   CLOUDY    72  63  73 SE6       29.84R
LITCHFIELD     CLOUDY    70  66  88 SE5       29.83S
BUFFALO        CLOUDY    70  64  80 SW6       29.85S
MAPLE LAKE     CLOUDY    71  66  84 SW5       29.85S
HUTCHINSON     CLOUDY    67  66  96 SE3       29.84S
$$
MNZ037-044-045-052-053-240300-
   East Central Minnesota

CITY           SKY/WX    TMP DP  RH WIND       PRES   REMARKS
PRINCETON      CLOUDY    73  64  73 SE6       29.85R
MORA           CLOUDY    70  61  73 SE5       29.87S
CAMBRIDGE      CLOUDY    75  63  64 SE6       29.84R
RUSH CITY      CLOUDY    72  64  77 SE6       29.86S
MOOSE LAKE     MOCLDY    72  64  78 S5        29.86R
HINCKLEY       FAIR      72  64  78 SE5       29.86S
CLOQUET        CLOUDY    73  64  73 S6        29.89R
MCGREGOR       CLOUDY    73  68  83 SE7       29.86R
$$
MNZ071>073-080-081-089-090-097-098-240300-
   Southwest Minnesota

CITY           SKY/WX    TMP DP  RH WIND       PRES   REMARKS
MONTEVIDEO     CLOUDY    68  64  88 SW12G18   29.81S
GRANITE FALLS  CLOUDY    68  66  95 SE7       29.82F
CANBY          CLOUDY    68  66  93 E6        29.80S
MARSHALL       CLOUDY    67  66  97 SE9       29.81F
REDWOOD FALLS  LGT RAIN  66  63  90 SE5       29.82R
OLIVIA         CLOUDY    68  63  83 S9        29.82R
PIPESTONE      CLOUDY    70  68  94 CALM      29.82S
WINDOM         CLOUDY    68  66  94 SE12G17   29.82S FOG
WORTHINGTON    CLOUDY    70  69  97 SE12      29.82S
JACKSON        CLOUDY    68  64  88 SE12      29.85R FOG
TRACY          CLOUDY    67  66  99 CALM      29.82F
SLAYTON        CLOUDY    64  64 100 CALM      29.83F
$$
MNZ065>067-074>077-082>085-091>093-240300-
   South Central Minnesota

CITY           SKY/WX    TMP DP  RH WIND       PRES   REMARKS
MANKATO        CLOUDY    66  63  88 SE16      29.84F
NEW ULM          N/A     66  64  94 SE13      29.81S
ST JAMES       CLOUDY    61  61 100 SE12G18   29.83F
FAIRMONT         N/A    N/A N/A N/A MISG        N/A
GLENCOE        CLOUDY    68  67  97 CALM      29.83F
FARIBAULT      CLOUDY    66  66 100 SE15G22   29.89F
OWATONNA       TSTM      70  66  88 SE10      29.90F
WASECA         CLOUDY    64  63  94 SE12      29.90R
ALBERT LEA     CLOUDY    66  64  94 CALM      29.92R
$$
MNZ078>079-086>088-094>096-240300-
   Southeast Minnesota

CITY           SKY/WX    TMP DP  RH WIND       PRES   REMARKS
ROCHESTER      TSTM      68  67  96 S12       29.93R FOG
RED WING       CLOUDY    72  66  83 SE5       29.88R
STANTON        CLOUDY    70  66  88 S6        29.88R
DODGE CENTER   HVY RAIN  66  64  94 W3G23     29.96R
WINONA         RAIN      70  64  83 SE7       29.90S
AUSTIN         TSTM      64  61  88 CALM      29.94R
PRESTON        TSTM      67  64  90 SE17G28   29.90S
$$
ABBREVIATIONS USED IN REMARKS
   TC - TEMPERATURES IN CELSIUS
  WCI - WIND CHILL INDEX
   HX - HEAT INDEX
  VSB - VISIBILITY
$$




USA.gov is the U.S. government's official web portal to all federal, state and local government web resources and services.